When you browse on this site, cookies collect data to enhance your experience and personalize the content and advertising you see.
Visit our Privacy Policy to learn more. By continuing to use the site, you agree to this use of cookies and data.
  • In France
  • List of Countries
  • For 7 days
  • Water Temperature
  • Weather Map
  • Weather Widgets
  • user-avatar
    Login

    Hourly Weather Reading

    Today, 19 September, Thursday

    Time Temperature Precipitation Wind Pressure Humidity
    00:00 +11°C° 0 mm 1 mps 769 mmHg 81%
    01:00 +10°C° 0 mm 0 mps 769 mmHg 82%
    02:00 +10°C° 0 mm 0 mps 769 mmHg 83%
    03:00 +9°C° 0 mm 0 mps 769 mmHg 85%
    04:00 +9°C° 0 mm 0 mps 769 mmHg 85%
    05:00 +9°C° 0 mm 0 mps 769 mmHg 85%
    06:00 +9°C° 0 mm 0 mps 769 mmHg 86%
    07:00 +11°C° 0 mm 0 mps 769 mmHg 78%
    08:00 +13°C° 0 mm 0 mps 769 mmHg 71%
    09:00 +15°C° 0 mm 0 mps 770 mmHg 64%
    10:00 +18°C° 0 mm 1 mps 769 mmHg 61%
    11:00 +19°C° 0 mm 1 mps 769 mmHg 57%
    12:00 +20°C° 0 mm 2 mps 770 mmHg 55%
    13:00 +20°C° 0 mm 2 mps 769 mmHg 54%
    14:00 +21°C° 0 mm 2 mps 769 mmHg 53%
    15:00 +21°C° 0 mm 2 mps 769 mmHg 52%
    16:00 +20°C° 0 mm 2 mps 768 mmHg 58%
    17:00 +18°C° 0 mm 2 mps 768 mmHg 64%
    18:00 +17°C° 0 mm 2 mps 768 mmHg 69%
    19:00 +16°C° 0 mm 2 mps 768 mmHg 73%
    20:00 +15°C° 0 mm 2 mps 768 mmHg 76%
    21:00 +13°C° 0 mm 2 mps 768 mmHg 80%
    22:00 +13°C° 0 mm 2 mps 768 mmHg 83%
    23:00 +12°C° 0 mm 2 mps 768 mmHg 85%

    Tomorrow, 20 September, Friday

    Time Temperature Precipitation Wind Pressure Humidity
    00:00 +12°C° 0 mm 2 mps 768 mmHg 88%
    01:00 +12°C° 0 mm 2 mps 768 mmHg 89%
    02:00 +12°C° 0 mm 2 mps 767 mmHg 90%
    03:00 +10°C° 0 mm 2 mps 767 mmHg 92%
    04:00 +10°C° 0 mm 2 mps 767 mmHg 92%
    05:00 +10°C° 0 mm 2 mps 767 mmHg 93%
    06:00 +10°C° 0 mm 2 mps 766 mmHg 93%
    07:00 +12°C° 0 mm 3 mps 766 mmHg 83%
    08:00 +14°C° 0 mm 4 mps 766 mmHg 73%
    09:00 +15°C° 0 mm 5 mps 766 mmHg 63%
    10:00 +17°C° 0 mm 5 mps 765 mmHg 59%
    11:00 +19°C° 0 mm 5 mps 765 mmHg 54%
    12:00 +20°C° 0 mm 6 mps 764 mmHg 49%
    13:00 +20°C° 0 mm 6 mps 763 mmHg 48%
    14:00 +21°C° 0 mm 6 mps 763 mmHg 46%
    15:00 +21°C° 0 mm 6 mps 762 mmHg 44%
    16:00 +19°C° 0 mm 6 mps 761 mmHg 49%
    17:00 +17°C° 0 mm 5 mps 761 mmHg 54%
    18:00 +15°C° 0 mm 4 mps 760 mmHg 58%
    19:00 +15°C° 0 mm 5 mps 760 mmHg 59%
    20:00 +14°C° 0 mm 5 mps 760 mmHg 60%
    21:00 +14°C° 0 mm 5 mps 760 mmHg 61%
    22:00 +13°C° 0 mm 5 mps 759 mmHg 62%
    23:00 +13°C° 0 mm 5 mps 759 mmHg 62%

    Day after tomorrow, 21 September, Saturday

    Time Temperature Precipitation Wind Pressure Humidity
    00:00 +13°C° 0 mm 5 mps 758 mmHg 63%
    01:00 +13°C° 0 mm 5 mps 758 mmHg 65%
    02:00 +12°C° 0 mm 5 mps 757 mmHg 67%
    03:00 +12°C° 0 mm 4 mps 757 mmHg 68%
    04:00 +12°C° 0 mm 5 mps 756 mmHg 70%
    05:00 +10°C° 0 mm 5 mps 756 mmHg 71%
    06:00 +10°C° 0 mm 5 mps 756 mmHg 73%
    07:00 +13°C° 0 mm 5 mps 755 mmHg 69%
    08:00 +14°C° 0 mm 5 mps 755 mmHg 66%
    09:00 +16°C° 0 mm 6 mps 755 mmHg 62%
    10:00 +19°C° 0 mm 6 mps 755 mmHg 59%
    11:00 +20°C° 0 mm 6 mps 754 mmHg 56%
    12:00 +22°C° 0 mm 6 mps 754 mmHg 53%
    13:00 +23°C° 0 mm 6 mps 753 mmHg 54%
    14:00 +23°C° 0 mm 6 mps 753 mmHg 55%
    15:00 +25°C° 0 mm 5 mps 752 mmHg 56%
    16:00 +22°C° 0 mm 5 mps 752 mmHg 60%
    17:00 +21°C° 0 mm 4 mps 752 mmHg 65%
    18:00 +20°C° 0 mm 3 mps 752 mmHg 70%
    19:00 +19°C° 0 mm 4 mps 751 mmHg 70%
    20:00 +19°C° 0 mm 4 mps 751 mmHg 71%
    21:00 +18°C° 0 mm 4 mps 751 mmHg 72%
    22:00 +18°C° 0.2 mm 4 mps 750 mmHg 75%
    23:00 +18°C° 0.2 mm 3 mps 750 mmHg 78%

    22 September, Sunday

    Time Temperature Precipitation Wind Pressure Humidity
    00:00 +18°C° 0.2 mm 3 mps 750 mmHg 81%
    01:00 +18°C° 0.1 mm 3 mps 749 mmHg 83%
    02:00 +18°C° 0.1 mm 3 mps 749 mmHg 85%
    03:00 +18°C° 0.1 mm 3 mps 749 mmHg 87%
    04:00 +18°C° 0 mm 3 mps 749 mmHg 88%
    05:00 +18°C° 0 mm 3 mps 749 mmHg 89%
    06:00 +18°C° 0 mm 3 mps 749 mmHg 89%
    07:00 +18°C° 0 mm 3 mps 749 mmHg 88%
    08:00 +19°C° 0 mm 3 mps 749 mmHg 86%
    09:00 +20°C° 0 mm 3 mps 749 mmHg 84%
    10:00 +18°C° 1.4 mm 3 mps 749 mmHg 87%
    11:00 +17°C° 1.4 mm 3 mps 749 mmHg 89%
    12:00 +16°C° 1.4 mm 3 mps 749 mmHg 91%
    13:00 +17°C° 0.2 mm 3 mps 749 mmHg 87%
    14:00 +17°C° 0.2 mm 3 mps 749 mmHg 84%
    15:00 +18°C° 0.2 mm 3 mps 750 mmHg 80%
    16:00 +17°C° 0 mm 3 mps 750 mmHg 81%
    17:00 +17°C° 0 mm 3 mps 750 mmHg 81%
    18:00 +16°C° 0 mm 2 mps 750 mmHg 82%
    19:00 +16°C° 0 mm 2 mps 750 mmHg 85%
    20:00 +14°C° 0 mm 3 mps 751 mmHg 88%
    21:00 +13°C° 0 mm 3 mps 751 mmHg 92%
    22:00 +13°C° 0 mm 3 mps 751 mmHg 93%
    23:00 +13°C° 0 mm 3 mps 751 mmHg 94%

    23 September, Monday

    Time Temperature Precipitation Wind Pressure Humidity
    00:00 +12°C° 0 mm 3 mps 752 mmHg 95%
    01:00 +12°C° 0 mm 3 mps 752 mmHg 95%
    02:00 +12°C° 0 mm 3 mps 752 mmHg 95%
    03:00 +12°C° 0 mm 4 mps 753 mmHg 95%
    04:00 +11°C° 0 mm 3 mps 753 mmHg 95%
    05:00 +11°C° 0 mm 3 mps 753 mmHg 95%
    06:00 +10°C° 0 mm 3 mps 754 mmHg 95%
    07:00 +12°C° 0 mm 3 mps 754 mmHg 87%
    08:00 +13°C° 0 mm 4 mps 754 mmHg 80%
    09:00 +15°C° 0 mm 4 mps 755 mmHg 73%
    10:00 +17°C° 0 mm 4 mps 755 mmHg 68%
    11:00 +19°C° 0 mm 5 mps 755 mmHg 63%
    12:00 +20°C° 0 mm 5 mps 755 mmHg 59%
    13:00 +20°C° 0.1 mm 5 mps 755 mmHg 60%
    14:00 +20°C° 0.1 mm 5 mps 754 mmHg 61%
    15:00 +19°C° 0.1 mm 6 mps 754 mmHg 62%
    16:00 +19°C° 0 mm 5 mps 754 mmHg 67%
    17:00 +18°C° 0 mm 4 mps 754 mmHg 71%
    18:00 +17°C° 0 mm 4 mps 754 mmHg 76%
    19:00 +17°C° 0 mm 4 mps 754 mmHg 79%
    20:00 +16°C° 0 mm 5 mps 754 mmHg 81%
    21:00 +16°C° 0 mm 5 mps 754 mmHg 83%
    22:00 +16°C° 0.2 mm 6 mps 753 mmHg 85%
    23:00 +16°C° 0.2 mm 6 mps 753 mmHg 87%

    24 September, Tuesday

    Time Temperature Precipitation Wind Pressure Humidity
    00:00 +15°C° 0.2 mm 6 mps 752 mmHg 89%
    01:00 +16°C° 0.3 mm 6 mps 752 mmHg 91%
    02:00 +16°C° 0.3 mm 6 mps 751 mmHg 92%
    03:00 +16°C° 0.3 mm 6 mps 750 mmHg 93%
    04:00 +16°C° 0.5 mm 5 mps 750 mmHg 94%
    05:00 +16°C° 0.5 mm 5 mps 749 mmHg 94%
    06:00 +16°C° 0.5 mm 5 mps 749 mmHg 94%
    07:00 +16°C° 0.4 mm 5 mps 749 mmHg 94%
    08:00 +16°C° 0.4 mm 6 mps 748 mmHg 93%
    09:00 +17°C° 0.4 mm 6 mps 748 mmHg 93%
    10:00 +16°C° 0.7 mm 6 mps 748 mmHg 93%
    11:00 +16°C° 0.7 mm 6 mps 747 mmHg 92%
    12:00 +16°C° 0.7 mm 6 mps 747 mmHg 92%
    13:00 +17°C° 0.6 mm 6 mps 747 mmHg 85%
    14:00 +18°C° 0.6 mm 7 mps 747 mmHg 78%
    15:00 +20°C° 0.6 mm 7 mps 747 mmHg 71%
    16:00 +17°C° 0.1 mm 7 mps 747 mmHg 73%
    17:00 +16°C° 0.1 mm 6 mps 747 mmHg 76%
    18:00 +14°C° 0.1 mm 6 mps 748 mmHg 78%
    19:00 +13°C° 0 mm 6 mps 748 mmHg 78%
    20:00 +13°C° 0 mm 6 mps 749 mmHg 77%
    21:00 +11°C° 0 mm 6 mps 749 mmHg 77%
    22:00 +12°C° 0 mm 5 mps 749 mmHg 79%
    23:00 +10°C° 0 mm 5 mps 749 mmHg 81%
    Show more